Regional Weather Roundup
Issued by NWS

Home | Current Version | Previous Version | Text Only | Print | Product List | Glossary On
Versions: 1 2 3 4 5 6 7 8 9 10 11 12 13 14 15 16 17 18 19 20 21 22 23 24 25 26 27 28 29 30 31 32 33 34 35 36 37 38 39 40 41 42 43 44 45 46 47 48 49 50
000
ASUS43 KLMK 282102
RWRKY
KENTUCKY REGIONAL WEATHER ROUNDUP
NATIONAL WEATHER SERVICE LOUISVILLE KY
500 PM EDT TUE JUL 28 2015

NOTE "FAIR" INDICATES FEW OR NO CLOUDS BELOW 12,000 FEET
WITH NO SIGNIFICANT WEATHER AND/OR OBSTRUCTIONS TO VISIBILITY.

KYZ001>023-026-027-061>063-070>075-282200-
WESTERN AND SOUTH CENTRAL KENTUCKY

CITY           SKY/WX    TMP DP  RH WIND       PRES   REMARKS
PADUCAH        SUNNY     93  77  59 SW9       29.93F HX 107
HENDERSON      MOSUNNY   93  79  62 N3        29.92S HX 110
OWENSBORO      MOSUNNY   94  80  63 VRB3      29.94F HX 113
HOPKINSVILLE   MOSUNNY   93  77  59 W7        29.96S HX 106
BOWLING GREEN  MOSUNNY   77  71  82 SW7       29.98F
GLASGOW        NOT AVBL
$$

KYZ024-025-028>034-038-045-046-053-282200-
NORTH CENTRAL KENTUCKY

CITY           SKY/WX    TMP DP  RH WIND       PRES   REMARKS
LOUISVILLE/SDF PTSUNNY   93  75  55 W14       29.92F HX 104
LOUISVILLE/LOU MOSUNNY   93  73  52 N8        29.93F HX 102
FORT KNOX      MOSUNNY   90  76  63 NW5       29.94F HX 102
$$

KYZ035>037-039>044-047>052-055>060-089>105-282200-
NORTHEAST KENTUCKY

CITY           SKY/WX    TMP DP  RH WIND       PRES   REMARKS
LEXINGTON      PTSUNNY   82  70  66 E9        29.98F
COVINGTON      MOSUNNY   90  70  51 NW7       29.96F HX  95
FRANKFORT      TSTM      77  71  82 E10       29.98R
$$

KYZ054-064>069-076>088-106>120-282200-
SOUTHEAST KENTUCKY

CITY           SKY/WX    TMP DP  RH WIND       PRES   REMARKS
JACKSON        PTSUNNY   86  71  60 CALM      30.00F HX  91
LONDON         PTSUNNY   81  72  74 SE6       30.00F
SOMERSET       NOT AVBL
MIDDLESBORO    NOT AVBL
MONTICELLO     CLEAR     92  77  61 W8        29.99F HX 105
$$




USA.gov is the U.S. government's official web portal to all federal, state and local government web resources and services.